Simultaneous Nadir Overpasses (SNOs) Predictions

Prediction of SNOs near US between AQUA and NPP Satellite Orbit:

Table of predicted SNOs near US for the next 10.0 days since TLE Epoch: 8/17/2012
Index Date (AQUA) Time (AQUA) AQUA Lat,Lon Date (NPP) Time (NPP) NPP Lat,Lon Distance(km) Time Diff (sec)
1 08/19/2012 18:16:49 49.96, -80.19 08/19/2012 18:08:33 49.68, -81.70 112.57 496
2 08/19/2012 19:55:42 49.95,-104.91 08/19/2012 19:50:01 49.57,-107.03 157.82 341
3 08/19/2012 21:30:51 36.59,-124.99 08/19/2012 21:27:39 36.14,-127.52 231.85 192
4 08/25/2012 06:31:47 40.75, -67.04 08/25/2012 06:30:09 41.13, -69.10 178.69 98
5 08/25/2012 08:08:06 49.92, -88.41 08/25/2012 08:08:58 50.42, -90.83 181.59 52
6 08/25/2012 09:46:59 49.92,-113.12 08/25/2012 09:50:26 50.53,-116.15 225.96 207
